Flag for Spain Weather past 2 weeks in Zaragoza, Spain

Now
90 °F

Passing clouds.


Feels Like: 86 °F
Forecast: 67 / 94 °F
Wind: 9 mph from Northwest

Location: Zaragoza / Aeropuerto

Current Time: Jul 23, 2014 at 8:11:55 PM

Latest Report: Jul 23, 2014 at 7:30 PM


Visibility: N/A

Pressure: 29.80 "Hg

Humidity: 24%

Dew point: 48 °F

Location of ZaragozaLocation

Historic Weather in Zaragoza — Graph

°F

Zaragoza temperature yesterday

Maximum temperature yesterday: 86 °F (at 5:00 PM)
Minimum temperature yesterday: 63 °F (at 5:00 AM)
Average temperature yesterday: 72 °F

Past Weeks' High & Low Weather Summary

 TemperatureHumidityPressure
High100 °F (Jul 17, 5:00 PM)82% (Jul 10, 6:30 AM)30.18 "Hg (Jul 10, 6:30 AM)
Low55 °F (Jul 10, 6:30 AM)17% (Jul 17, 5:00 PM)29.71 "Hg (Jul 18, 7:30 PM)
Average74 °F50%30.03 "Hg
* Reported Jul 8 7:00 PM — Jul 23 7:00 PM, Zaragoza, Weather by CustomWeather, © 2014

Note: Actual official high and low records may vary slightly from our data, if they occured in-between our weather recording intervals... More about our weather records

Advertising

Zaragoza weather history for previous 24 hours

 ConditionsComfort  
Time TempWeatherWind HumidityBarometerVisibility
7:00 PM
Jul 23
90 °FPassing clouds.9 mph24%29.80 "HgN/A
6:30 PM90 °FPassing clouds.9 mph26%29.80 "HgN/A
6:00 PM90 °FPassing clouds.8 mph26%29.80 "HgN/A
5:30 PM88 °FPassing clouds.9 mph27%29.83 "HgN/A
5:00 PM88 °FPassing clouds.9 mph25%29.83 "HgN/A
4:30 PM88 °FPassing clouds.9 mph21%29.83 "HgN/A
4:00 PM88 °FPassing clouds.10 mph22%29.86 "HgN/A
3:30 PM86 °FPassing clouds.10 mph27%29.86 "HgN/A
3:00 PM84 °FPassing clouds.10 mph27%29.89 "HgN/A
2:30 PM82 °FPassing clouds.9 mph32%29.89 "HgN/A
2:00 PM82 °FPassing clouds.10 mph32%29.89 "HgN/A
1:30 PM81 °FPassing clouds.12 mph39%29.92 "HgN/A
1:00 PM81 °FPassing clouds.12 mph42%29.92 "HgN/A
12:00 PM75 °FPassing clouds.10 mph54%29.95 "HgN/A
11:30 AM73 °FPassing clouds.12 mph57%29.95 "HgN/A
11:00 AM73 °FPassing clouds.13 mph53%29.95 "HgN/A
10:00 AM72 °FSunny.12 mph57%29.95 "Hg10 mi
8:00 AM64 °FSunny.6 mph73%29.95 "Hg10 mi
7:30 AM64 °FClear.8 mph73%29.95 "Hg10 mi
6:30 AM63 °FPassing clouds.3 mph73%29.95 "HgN/A
6:00 AM64 °FClear.No wind73%29.95 "Hg10 mi
5:30 AM66 °FClear.10 mph68%29.95 "Hg10 mi
5:00 AM66 °FClear.10 mph68%29.95 "Hg10 mi
4:30 AM66 °FClear.13 mph68%29.95 "Hg10 mi
4:00 AM68 °FClear.16 mph64%29.95 "Hg10 mi
3:30 AM68 °FClear.16 mph64%29.98 "Hg10 mi
3:00 AM68 °FClear.15 mph64%29.98 "Hg10 mi
2:30 AM68 °FClear.21 mph64%29.98 "Hg10 mi
2:00 AM68 °FClear.20 mph64%29.98 "Hg10 mi
1:00 AM70 °FClear.16 mph60%29.98 "Hg10 mi
Weather by CustomWeather, © 2014

See weather overviewHow to use our weather pages